Whidbey Island, WA

5:38 AM PST on December 11, 2017 (GMT -0800)
Whidbey Island Naval Air Station

Weather History for KNUW - October, 2011

Change the Weather History Date:

Friday, October 28, 2011

  Actual Average Record
Temperature  
Mean Temperature 48 °F -  
Max Temperature 55 °F 51 °F 68 °F (2016)
Min Temperature 43 °F 38 °F 35 °F (2004)
Degree Days  
Heating Degree Days 16    
Moisture  
Dew Point 41 °F    
Average Humidity 72    
Maximum Humidity 86    
Minimum Humidity 49    
Precipitation  
Precipitation 0.29 in - - ()
Sea Level Pressure  
Sea Level Pressure 29.94 in    
Wind  
Wind Speed 14 mph (SSE)    
Max Wind Speed 30 mph    
Max Gust Speed 44 mph    
Visibility 8 miles    
Events Rain    
Averages and records for this station are not official NWS values.
T = Trace of Precipitation, MM = Missing Value Source: NWS Daily Summary

Daily Weather History Graph

Daily Weather History Graph

Search for Another Location

Airport or City:

Trip Planner

Search our weather history database for the weather conditions in past years. The results will help you decide how hot, cold, wet, or windy it might be!

Date:

Astronomy

Oct. 28, 2011 Rise Set
Actual Time 7:49 AM PDT 5:58 PM PDT
Civil Twilight 7:17 AM PDT 6:30 PM PDT
Nautical Twilight 6:40 AM PDT 7:07 PM PDT
Astronomical Twilight 6:04 AM PDT 7:43 PM PDT
Moon 10:26 AM PDT (10/28) 7:11 PM PDT (10/28)
Length of Visible Light 11h 13m
Length of Day
10h 08m
Waxing Crescent, 6% of the Moon is Illuminated
Oct 28
Waxing Crescent
Nov 2
First Quarter
Nov 10
Full
Nov 18
Last Quarter
Nov 24
New

Hourly Weather History & Observations

Time (PDT) Temp. Windchill Dew Point Humidity Pressure Visibility Wind Dir Wind Speed Gust Speed Precip Events Conditions
12:56 AM 43.0 °F 38.2 °F 39.0 °F 86% 30.06 in 10.0 mi ESE 8.1 mph - N/A   Overcast
1:56 AM 44.1 °F 41.5 °F 39.0 °F 82% 30.05 in 10.0 mi ESE 4.6 mph - N/A   Overcast
2:56 AM 46.0 °F 40.2 °F 39.0 °F 76% 30.03 in 10.0 mi East 12.7 mph - N/A   Overcast
3:56 AM 48.9 °F - 36.0 °F 61% 30.01 in 10.0 mi East 9.2 mph - N/A   Overcast
4:56 AM 45.0 °F - 35.1 °F 68% 30.02 in 10.0 mi Calm Calm - N/A   Overcast
5:56 AM 46.9 °F - 37.9 °F 71% 30.00 in 10.0 mi East 8.1 mph - N/A   Overcast
6:56 AM 48.9 °F - 37.0 °F 64% 29.96 in 8.0 mi East 15.0 mph - N/A   Overcast
7:56 AM 50.0 °F - 36.0 °F 59% 29.92 in 9.0 mi ESE 16.1 mph - N/A   Overcast
8:56 AM 54.0 °F - 35.1 °F 49% 29.89 in 10.0 mi SE 29.9 mph 39.1 mph N/A   Overcast
9:56 AM 54.0 °F - 36.0 °F 51% 29.88 in 10.0 mi SE 27.6 mph 38.0 mph N/A   Overcast
10:42 AM 53.6 °F - 35.6 °F 51% 29.86 in 9.0 mi SE 28.8 mph 38.0 mph 0.00 in Rain Light Rain
10:56 AM 53.1 °F - 37.9 °F 57% 29.87 in 9.0 mi SSE 26.5 mph 43.7 mph 0.00 in Rain Light Rain
11:21 AM 53.6 °F - 37.4 °F 54% 29.85 in 10.0 mi SSE 28.8 mph 36.8 mph 0.00 in   Overcast
11:56 AM 53.1 °F - 39.0 °F 59% 29.90 in 8.0 mi SSE 16.1 mph 28.8 mph 0.00 in   Overcast
12:31 PM 51.8 °F - 39.2 °F 62% 29.86 in 9.0 mi SSE 24.2 mph 32.2 mph 0.00 in Rain Light Rain
12:46 PM 51.8 °F - 41.0 °F 67% 29.86 in 2.5 mi SE 20.7 mph 32.2 mph 0.01 in Rain Rain
12:56 PM 50.0 °F - 42.1 °F 74% 29.87 in 2.5 mi SE 21.9 mph 27.6 mph 0.02 in Rain Light Rain
1:56 PM 48.9 °F - 45.0 °F 86% 29.87 in 3.0 mi SSE 21.9 mph 28.8 mph 0.09 in Rain Light Rain
2:56 PM 50.0 °F - 45.0 °F 83% 29.86 in 8.0 mi SE 19.6 mph 31.1 mph 0.00 in Rain Light Rain
3:20 PM 50.0 °F - 44.6 °F 82% 29.86 in 4.0 mi SE 11.5 mph - 0.05 in Rain Light Rain
3:56 PM 50.0 °F - 46.0 °F 86% 29.88 in 4.0 mi South 9.2 mph - 0.16 in Rain Rain
4:56 PM 51.1 °F - 46.9 °F 86% 29.91 in 8.0 mi WSW 5.8 mph - 0.02 in Rain Light Rain
5:13 PM 51.8 °F - 46.4 °F 82% 29.90 in 10.0 mi WSW 11.5 mph - 0.00 in   Overcast
5:56 PM 50.0 °F - 46.0 °F 86% 29.94 in 10.0 mi West 12.7 mph - 0.00 in   Mostly Cloudy
6:56 PM 50.0 °F - 44.1 °F 80% 29.96 in 10.0 mi West 18.4 mph - N/A   Mostly Cloudy
7:56 PM 48.9 °F - 44.1 °F 83% 29.99 in 10.0 mi West 11.5 mph - N/A   Mostly Cloudy
8:56 PM 50.0 °F - 44.1 °F 80% 30.01 in 10.0 mi West 16.1 mph - N/A   Mostly Cloudy
9:56 PM 50.0 °F - 45.0 °F 83% 30.05 in 9.0 mi WNW 11.5 mph - N/A   Overcast
10:56 PM 48.9 °F - 44.1 °F 83% 30.08 in 10.0 mi West 11.5 mph - N/A   Mostly Cloudy
11:56 PM 48.9 °F - 44.1 °F 83% 30.10 in 10.0 mi West 12.7 mph - N/A   Scattered Clouds